STARLINK-36999

Last updated on Sun Apr 12 2026 00:02:07 GMT+0000 (Coordinated Universal Time)

1 68268U 26055G 26101.51218693 .00266291 00000+0 13043-2 0 9991 2 68268 53.1577 172.7511 0001573 36.1368 323.9760 15.80992661 4873
UTC large
Height (km)
Speed (km/s)
/
Latitude / Longitude
Inclination (degrees)
Orbital Period (minutes)
Azimuth
Elevation
Range (km)
Doppler Factor

Next 0 passes for location: London (51.5072 / 0.1276)

Sorry there are no passes over London.
STARLINK-36999